User: anonymous   Login
Location: Asheville, NC
(35.6000°N, 82.5500°W)
Time: 01:05:33
(UTC-05:00)
Language:

Tiangong 2 - Orbit

View from above orbital plane
View from above orbital plane
View from above satellite
View from above satellite

Ground track
Ground track

The orbit data is extracted from the following two-line orbital elements,

1 41765U 16057A   18021.50802946  .00003827  00000-0  50306-4 0  9996
2 41765  42.7826 137.0315 0004404 306.9593 165.7519 15.60163145 77067
Epoch (UTC): 21 January 2018 12:11:33
Eccentricity: 0.0004404
inclination: 42.7826°
perigee height: 384 km
apogee height: 390 km
right ascension of ascending node: 137.0315°
argument of perigee: 306.9593°
revolutions per day: 15.60163145
mean anomaly at epoch: 165.7519°
orbit number at epoch: 7706

The dashed part of the orbit path shows where the satellite is in the earth's shadow,  

DLR